Bremerton, WA

8:03 PM PST on December 10, 2019 (GMT -0800)
Bremerton National

Weather History for KPWT - November, 2019

Change the Weather History Date:

Tuesday, November 19, 2019

  Actual Average Record
Temperature  
Mean Temperature 43 °F -  
Max Temperature 51 °F 46 °F 55 °F (2002)
Min Temperature 35 °F 35 °F 21 °F (2000)
Degree Days  
Heating Degree Days 22    
Moisture  
Dew Point 42 °F    
Average Humidity 95    
Maximum Humidity 100    
Minimum Humidity 74    
Precipitation  
Precipitation 0.00 in - - ()
Sea Level Pressure  
Sea Level Pressure 29.91 in    
Wind  
Wind Speed 5 mph ()    
Max Wind Speed 13 mph    
Max Gust Speed -    
Visibility 6.1 miles    
Events Fog , Rain    
Averages and records for this station are not official NWS values.
T = Trace of Precipitation, MM = Missing Value Source: Averaged Metar Reports

Daily Weather History Graph

Daily Weather History Graph

Search for Another Location

Airport or City:

Astronomy

Nov. 19, 2019 Rise Set
Actual Time 7:21 AM PST 4:30 PM PST
Civil Twilight 6:47 AM PST 5:04 PM PST
Nautical Twilight 6:09 AM PST 5:42 PM PST
Astronomical Twilight 5:33 AM PST 6:18 PM PST
Moon 11:38 PM PST (11/19) 1:32 PM PST (11/19)
Length of Visible Light 10h 17m
Length of Day
9h 09m
Waning Gibbous, 50% of the Moon is Illuminated
Nov 19
Waning Gibbous
Nov 19
Last Quarter
Nov 26
New
Dec 3
First Quarter
Dec 11
Full

Hourly Weather History & Observations

Time (PST) Temp. Windchill Dew Point Humidity Pressure Visibility Wind Dir Wind Speed Gust Speed Precip Events Conditions
12:20 AM 50.0 °F - 48.2 °F 94% 29.68 in 6.0 mi SSW 8.1 mph - N/A Rain Rain
12:27 AM 50.0 °F - 48.2 °F 94% 29.67 in 4.0 mi South 8.1 mph - N/A Rain Rain
12:38 AM 50.0 °F - 48.2 °F 94% 29.68 in 5.0 mi West 11.5 mph - N/A Rain Heavy Rain
12:56 AM 48.9 °F - 46.9 °F 93% 29.74 in 4.0 mi WSW 9.2 mph - N/A Rain Rain
1:26 AM 48.2 °F - 46.4 °F 93% 29.67 in 10.0 mi SSE 3.5 mph - N/A   Mostly Cloudy
1:56 AM 46.9 °F - 46.0 °F 97% 29.73 in 10.0 mi SW 3.5 mph - N/A   Mostly Cloudy
2:09 AM 46.4 °F - 46.4 °F 100% 29.68 in 10.0 mi Calm Calm - N/A   Overcast
2:56 AM 48.0 °F - 46.9 °F 96% 29.75 in 10.0 mi NNE 5.8 mph - N/A   Overcast
3:47 AM 48.2 °F - 46.4 °F 93% 29.70 in 4.0 mi NE 9.2 mph - N/A Rain Light Rain
3:56 AM 48.0 °F - 46.9 °F 96% 29.76 in 4.0 mi NE 8.1 mph - N/A Rain Light Rain
4:07 AM 46.4 °F 41.9 °F 46.4 °F 100% 29.70 in 8.0 mi NE 9.2 mph - N/A Rain Light Rain
4:56 AM 46.9 °F - 46.0 °F 97% 29.77 in 10.0 mi NE 12.7 mph - N/A   Overcast
5:24 AM 46.4 °F 41.5 °F 46.4 °F 100% 29.72 in 9.0 mi ENE 10.4 mph - N/A Rain Light Rain
5:56 AM 46.9 °F - 46.0 °F 97% 29.77 in 10.0 mi NE 11.5 mph - N/A Rain Light Rain
6:18 AM 46.4 °F 40.7 °F 44.6 °F 93% 29.72 in 10.0 mi NE 12.7 mph - N/A Rain Light Rain
6:51 AM 46.4 °F 40.7 °F 44.6 °F 93% 29.73 in 10.0 mi NE 12.7 mph - N/A Rain Light Rain
6:52 AM 46.0 °F 40.2 °F 45.0 °F 96% 29.79 in 10.0 mi NE 12.7 mph - N/A Rain Light Rain
7:56 AM 46.0 °F 40.6 °F 44.1 °F 93% 29.80 in 10.0 mi ENE 11.5 mph - N/A Rain Light Rain
8:56 AM 46.0 °F 40.2 °F 44.1 °F 93% 29.82 in 10.0 mi ENE 12.7 mph - N/A   Mostly Cloudy
9:45 AM 46.4 °F 43.5 °F 44.6 °F 93% 29.80 in 10.0 mi NE 5.8 mph - N/A Rain Light Rain
9:52 AM 46.4 °F 43.5 °F 44.6 °F 93% 29.80 in 10.0 mi NE 5.8 mph - N/A Rain Light Rain
9:56 AM 46.0 °F 43.9 °F 45.0 °F 96% 29.86 in 10.0 mi NE 4.6 mph - N/A Rain Light Rain
10:08 AM 46.4 °F 45.2 °F 44.6 °F 93% 29.81 in 10.0 mi NE 3.5 mph - N/A Rain Light Rain
10:23 AM 46.4 °F 44.3 °F 44.6 °F 93% 29.82 in 10.0 mi Variable 4.6 mph - N/A   Mostly Cloudy
10:56 AM 46.9 °F - 46.0 °F 97% 29.88 in 10.0 mi East 4.6 mph - N/A   Overcast
11:02 AM 48.2 °F - 46.4 °F 93% 29.83 in 10.0 mi East 4.6 mph - N/A   Overcast
11:09 AM 48.2 °F - 46.4 °F 93% 29.83 in 10.0 mi NE 6.9 mph - N/A   Overcast
11:56 AM 50.0 °F - 46.0 °F 86% 29.90 in 10.0 mi NE 11.5 mph - N/A   Overcast
12:26 PM 50.0 °F - 44.6 °F 82% 29.85 in 10.0 mi ENE 9.2 mph - N/A   Overcast
12:45 PM 48.2 °F - 44.6 °F 87% 29.86 in 10.0 mi NNE 8.1 mph - N/A   Mostly Cloudy
12:56 PM 48.0 °F - 44.1 °F 86% 29.92 in 10.0 mi NE 9.2 mph - N/A   Scattered Clouds
1:56 PM 51.1 °F - 44.1 °F 77% 29.94 in 10.0 mi ENE 8.1 mph - N/A   Clear
2:56 PM 51.1 °F - 43.0 °F 74% 29.96 in 10.0 mi ENE 9.2 mph - N/A   Clear
3:56 PM 50.0 °F - 42.1 °F 74% 29.99 in 10.0 mi NE 3.5 mph - N/A   Clear
4:56 PM 42.1 °F - 41.0 °F 96% 30.02 in 10.0 mi Calm Calm - N/A   Clear
5:56 PM 39.9 °F - 39.0 °F 97% 30.06 in 10.0 mi Calm Calm - N/A   Clear
6:56 PM 37.0 °F - 37.0 °F 100% 30.07 in 7.0 mi Calm Calm - N/A   Clear
7:01 PM 37.4 °F - 37.4 °F 100% 30.02 in 2.0 mi Calm Calm - N/A   Partly Cloudy
7:08 PM 35.6 °F - 35.6 °F 100% 30.02 in 1.0 mi Calm Calm - N/A   Mist
7:12 PM 37.4 °F 34.9 °F 35.6 °F 93% 30.02 in 2.0 mi SSE 3.5 mph - N/A   Partly Cloudy
7:19 PM 37.4 °F - 37.4 °F 100% 30.02 in 4.0 mi Calm Calm - N/A   Partly Cloudy
7:23 PM 37.4 °F - 37.4 °F 100% 30.02 in 1.5 mi Calm Calm - N/A   Partly Cloudy
7:27 PM 37.4 °F - 35.6 °F 93% 30.02 in 0.8 mi Calm Calm - N/A   Mist
7:41 PM 37.4 °F - 37.4 °F 100% 30.02 in 4.0 mi Calm Calm - N/A   Partly Cloudy
7:46 PM 35.6 °F - 35.6 °F 100% 30.02 in 1.8 mi Calm Calm - N/A   Partly Cloudy
7:50 PM 35.6 °F - 35.6 °F 100% 30.02 in 0.5 mi Calm Calm - N/A Fog Fog
7:56 PM 35.1 °F 31.0 °F 35.1 °F 100% 30.08 in 0.2 mi SSE 4.6 mph - N/A Fog Fog
7:59 PM 35.6 °F 32.8 °F 35.6 °F 100% 30.03 in 0.5 mi SE 3.5 mph - N/A Fog Fog
8:08 PM 35.6 °F - 35.6 °F 100% 30.03 in 1.0 mi Calm Calm - N/A   Mist
8:16 PM 35.6 °F - 35.6 °F 100% 30.04 in 0.5 mi Calm Calm - N/A Fog Fog
8:43 PM 35.6 °F - 35.6 °F 100% 30.04 in 0.8 mi Calm Calm - N/A   Mist
8:50 PM 37.4 °F - 37.4 °F 100% 30.05 in 3.0 mi Calm Calm - N/A   Partly Cloudy
8:56 PM 37.0 °F - 36.0 °F 96% 30.11 in 1.8 mi Calm Calm - N/A   Partly Cloudy
9:06 PM 35.6 °F - 35.6 °F 100% 30.06 in 1.0 mi Calm Calm - N/A   Clear
9:56 PM 41.0 °F - 41.0 °F 100% 30.14 in 0.2 mi Calm Calm - N/A Fog Fog
10:25 PM 39.2 °F - 39.2 °F 100% 30.08 in 0.5 mi Calm Calm - N/A Fog Fog
10:35 PM 37.4 °F - 37.4 °F 100% 30.09 in 1.0 mi Calm Calm - N/A   Mist
10:39 PM 37.4 °F - 37.4 °F 100% 30.08 in 2.0 mi Calm Calm - N/A   Partly Cloudy
10:43 PM 37.4 °F - 37.4 °F 100% 30.08 in 1.0 mi Calm Calm - N/A   Clear
10:49 PM 37.4 °F - 37.4 °F 100% 30.09 in 1.2 mi Calm Calm - N/A   Partly Cloudy
10:53 PM 37.4 °F - 37.4 °F 100% 30.09 in 3.0 mi Calm Calm - N/A   Partly Cloudy
10:56 PM 36.0 °F - 36.0 °F 100% 30.14 in 7.0 mi Calm Calm - N/A   Clear
11:56 PM 35.1 °F 32.2 °F 35.1 °F 100% 30.15 in 10.0 mi Variable 3.5 mph - N/A   Clear